Lafayette, IN

1:52 PM EDT on August 30, 2016 (GMT -0400)
Purdue Univ

Weather History for KLAF - October, 2012

Change the Weather History Date:

Friday, October 26, 2012

  Actual Average Record
Temperature  
Mean Temperature 43 °F 51 °F  
Max Temperature 49 °F 61 °F 79 °F (2000)
Min Temperature 37 °F 41 °F 24 °F (1979)
Degree Days  
Heating Degree Days 22 14  
Month to date heating degree days 322 273  
Since 1 July heating degree days 463 358  
Cooling Degree Days 0 0  
Month to date cooling degree days 2 13  
Year to date cooling degree days 1181 978  
Moisture  
Dew Point 33 °F    
Average Humidity 71    
Maximum Humidity 86    
Minimum Humidity 56    
Precipitation  
Precipitation 0.23 in 0.09 in 1.01 in (1960)
Month to date precipitation 5.56 2.42  
Year to date precipitation 26.90 30.63  
Sea Level Pressure  
Sea Level Pressure 30.20 in    
Wind  
Wind Speed 11 mph (North)    
Max Wind Speed 18 mph    
Max Gust Speed 26 mph    
Visibility 10 miles    
Events Rain    
T = Trace of Precipitation, MM = Missing Value Source: NWS Daily Summary

Daily Weather History Graph

Daily Weather History Graph

Search for Another Location

Airport or City:

Trip Planner

Search our weather history database for the weather conditions in past years. The results will help you decide how hot, cold, wet, or windy it might be!

Date:

Astronomy

Oct. 26, 2012 Rise Set
Actual Time 8:11 AM EDT 6:51 PM EDT
Civil Twilight 7:43 AM EDT 7:19 PM EDT
Nautical Twilight 7:11 AM EDT 7:51 PM EDT
Astronomical Twilight 6:39 AM EDT 8:22 PM EDT
Moon 5:07 PM EDT (10/26) 5:06 AM EDT (10/26)
Length of Visible Light 11h 36m
Length of Day
10h 40m
Waxing Gibbous, 91% of the Moon is Illuminated
Oct 26
Waxing Gibbous
Oct 29
Full
Nov 6
Last Quarter
Nov 13
New
Nov 20
First Quarter

Hourly Weather History & Observations

Time (EDT) Temp. Windchill Dew Point Humidity Pressure Visibility Wind Dir Wind Speed Gust Speed Precip Events Conditions
12:54 AM 46.0 °F 39.9 °F - N/A% 30.03 in 8.0 mi NW 13.8 mph 21.9 mph 0.01 in Rain Light Rain
1:27 AM 46.4 °F 39.2 °F - N/A% 30.05 in 5.0 mi NNW 18.4 mph 26.5 mph 0.06 in Rain Rain
1:44 AM 44.6 °F 38.8 °F - N/A% 30.05 in 10.0 mi NW 11.5 mph 23.0 mph 0.09 in Rain Light Rain
2:42 AM 42.8 °F 36.2 °F - N/A% 30.09 in 7.0 mi NNW 12.7 mph - 0.07 in Rain Rain
2:54 AM 43.0 °F 38.2 °F - N/A% 30.09 in 7.0 mi NNW 8.1 mph - 0.09 in Rain Rain
3:08 AM 42.8 °F 37.0 °F - N/A% 30.11 in 10.0 mi NW 10.4 mph 23.0 mph 0.01 in Rain Light Rain
3:41 AM 42.8 °F 36.6 °F - N/A% 30.12 in 10.0 mi NNW 11.5 mph 20.7 mph 0.04 in Rain Rain
3:54 AM 43.0 °F 37.2 °F - N/A% 30.12 in 10.0 mi NNW 10.4 mph 21.9 mph 0.05 in Rain Light Rain
4:11 AM 44.6 °F 38.8 °F - N/A% 30.12 in 10.0 mi NNW 11.5 mph 18.4 mph 0.00 in   Overcast
4:54 AM 44.1 °F 37.1 °F - N/A% 30.12 in 10.0 mi NNW 15.0 mph 21.9 mph 0.00 in   Overcast
5:54 AM 43.0 °F 37.7 °F - N/A% 30.19 in 10.0 mi NW 9.2 mph - N/A   Overcast
6:54 AM 42.1 °F 35.2 °F - N/A% 30.18 in 10.0 mi NNW 12.7 mph - 0.00 in   Overcast
7:54 AM 41.0 °F 34.7 °F 37.0 °F 86% 30.19 in 10.0 mi North 10.4 mph - N/A   Overcast
8:54 AM 41.0 °F 34.3 °F 33.1 °F 73% 30.23 in 10.0 mi North 11.5 mph 23.0 mph N/A   Overcast
9:54 AM 39.9 °F 32.9 °F 32.0 °F 73% 30.27 in 10.0 mi North 11.5 mph - N/A   Overcast
11:54 AM 43.0 °F 36.4 °F 33.1 °F 68% 30.30 in 10.0 mi North 12.7 mph - N/A   Overcast
12:54 PM 45.0 °F 38.9 °F 33.1 °F 63% 30.29 in 10.0 mi NNE 12.7 mph 25.3 mph N/A   Overcast
1:01 PM 44.6 °F 37.8 °F 33.8 °F 66% 30.27 in 10.0 mi NNE 15.0 mph - N/A   Overcast
1:20 PM 44.6 °F 40.2 °F 35.6 °F 71% 30.28 in 10.0 mi North 8.1 mph - N/A   Overcast
1:32 PM 46.4 °F 42.4 °F 35.6 °F 66% 30.26 in 10.0 mi NNE 8.1 mph - N/A   Overcast
1:54 PM 46.0 °F 41.0 °F 34.0 °F 63% 30.27 in 10.0 mi North 10.4 mph - N/A   Overcast
2:54 PM 46.9 °F - 34.0 °F 61% 30.25 in 10.0 mi North 17.3 mph 21.9 mph N/A   Mostly Cloudy
3:54 PM 46.9 °F - 34.0 °F 61% 30.25 in 10.0 mi North 10.4 mph 20.7 mph N/A   Scattered Clouds
4:54 PM 48.0 °F - 33.1 °F 56% 30.25 in 10.0 mi North 12.7 mph - N/A   Clear
5:54 PM 46.9 °F - 33.1 °F 59% 30.23 in 10.0 mi North 15.0 mph 20.7 mph N/A   Clear
6:54 PM 45.0 °F 41.2 °F 32.0 °F 60% 30.23 in 10.0 mi North 6.9 mph - N/A   Clear
7:54 PM 43.0 °F 37.7 °F 32.0 °F 65% 30.26 in 10.0 mi North 9.2 mph - N/A   Clear
8:54 PM 41.0 °F 35.2 °F 32.0 °F 70% 30.27 in 10.0 mi North 9.2 mph - N/A   Clear
9:54 PM 39.0 °F 33.4 °F 32.0 °F 76% 30.27 in 10.0 mi North 8.1 mph - N/A   Clear
10:54 PM 37.9 °F 33.5 °F 30.9 °F 76% 30.27 in 10.0 mi NNE 5.8 mph - N/A   Clear
11:54 PM 37.9 °F 32.1 °F 30.9 °F 76% 30.27 in 10.0 mi NNE 8.1 mph - N/A   Clear